Weather History for Emporia, KS

Change the Weather History Date:

Wednesday, December 12, 2012

  Actual Average Record
Temperature  
Mean Temperature 38 °F 33 °F  
Max Temperature 51 °F 44 °F 55 °F (1996)
Min Temperature 24 °F 23 °F 1 °F (2000)
Degree Days  
Heating Degree Days 27 32  
Month to date heating degree days 264 358  
Since 1 July heating degree days 1139 1298  
Cooling Degree Days 0 0  
Month to date cooling degree days 0 0  
Year to date cooling degree days 1912 1403  
Moisture  
Dew Point 13 °F    
Average Humidity 45    
Maximum Humidity 68    
Minimum Humidity 21    
Precipitation  
Precipitation 0.00 in 0.04 in 0.11 in (2001)
Month to date precipitation 0.01 0.65  
Year to date precipitation 21.19 35.69  
Sea Level Pressure  
Sea Level Pressure 30.14 in    
Wind  
Wind Speed 16 mph (South)    
Max Wind Speed 29 mph    
Max Gust Speed 36 mph    
Visibility 10 miles    
Events      
T = Trace of Precipitation, MM = Missing Value Source: NWS Daily Summary

Daily Weather History Graph

Daily Weather History Graph

Search for Another Location

Airport:

Trip Planner

Search our weather history database for the weather conditions in past years. The results will help you decide how hot, cold, wet, or windy it might be!

Date:

Astronomy

Dec. 12, 2012 Rise Set
Actual Time 7:32 AM CST 5:04 PM CST
Civil Twilight 7:03 AM CST 5:34 PM CST
Nautical Twilight 6:30 AM CST 6:07 PM CST
Astronomical Twilight 5:57 AM CST 6:39 PM CST
Moon 6:38 AM CST (12/12) 4:42 PM CST (12/12)
Length of Visible Light 10h 31m
Length of Day
9h 32m
Waning Crescent, 1% of the Moon is Illuminated
Dec 12
Waning Crescent
Dec 13
New
Dec 19
First Quarter
Dec 28
Full
Jan 4
Last Quarter

Hourly Weather History & Observations

Time (CST) Temp. Windchill Dew Point Humidity Pressure Visibility Wind Dir Wind Speed Gust Speed Precip Events Conditions
12:53 AM 28.0 °F 18.1 °F 14.0 °F 56% 30.15 in 10.0 mi South 11.5 mph - N/A   Clear
1:53 AM 27.0 °F 16.1 °F 12.9 °F 56% 30.13 in 10.0 mi South 12.7 mph - N/A   Clear
2:53 AM 25.0 °F 14.8 °F 14.0 °F 63% 30.14 in 10.0 mi South 10.4 mph - N/A   Clear
3:53 AM 27.0 °F 16.7 °F 15.1 °F 61% 30.14 in 10.0 mi South 11.5 mph - N/A   Clear
4:53 AM 27.0 °F 16.7 °F 15.1 °F 61% 30.15 in 10.0 mi South 11.5 mph - N/A   Clear
6:53 AM 26.1 °F 15.0 °F 15.1 °F 63% 30.17 in 10.0 mi South 12.7 mph - N/A   Clear
7:53 AM 25.0 °F 13.1 °F 15.1 °F 66% 30.19 in 10.0 mi South 13.8 mph - N/A   Clear
8:53 AM 30.0 °F 19.1 °F 16.0 °F 56% 30.20 in 10.0 mi South 15.0 mph - N/A   Clear
9:53 AM 39.0 °F 30.3 °F 15.1 °F 38% 30.22 in 10.0 mi SSW 16.1 mph - N/A   Clear
10:53 AM 46.0 °F 38.0 °F 12.9 °F 26% 30.21 in 10.0 mi South 21.9 mph 27.6 mph N/A   Clear
11:53 AM 48.0 °F - 12.9 °F 24% 30.17 in 10.0 mi South 25.3 mph 35.7 mph N/A   Clear
12:53 PM 50.0 °F - 14.0 °F 24% 30.15 in 10.0 mi South 23.0 mph 29.9 mph N/A   Clear
1:53 PM 51.1 °F - 12.9 °F 22% 30.13 in 10.0 mi South 19.6 mph 27.6 mph N/A   Clear
2:53 PM 50.0 °F - 12.0 °F 22% 30.12 in 10.0 mi South 21.9 mph 27.6 mph N/A   Clear
3:53 PM 48.9 °F - 12.9 °F 24% 30.11 in 10.0 mi South 19.6 mph 27.6 mph N/A   Clear
4:53 PM 46.0 °F 39.0 °F 12.9 °F 26% 30.10 in 10.0 mi SSE 17.3 mph 24.2 mph N/A   Clear
5:41 PM 42.8 °F 35.4 °F 12.2 °F 29% 30.07 in 10.0 mi SSE 15.0 mph 34.5 mph N/A   Squalls
5:53 PM 43.0 °F 35.7 °F 12.0 °F 28% 30.10 in 10.0 mi SSE 15.0 mph - N/A   Clear
6:53 PM 39.9 °F 32.1 °F 12.9 °F 33% 30.12 in 10.0 mi SSE 13.8 mph - N/A   Clear
7:53 PM 37.9 °F 30.0 °F 12.9 °F 36% 30.12 in 10.0 mi SSE 12.7 mph - N/A   Clear
8:53 PM 37.0 °F 29.8 °F 12.9 °F 37% 30.14 in 10.0 mi SSE 10.4 mph - N/A   Clear
9:53 PM 36.0 °F 27.1 °F 12.9 °F 39% 30.13 in 10.0 mi SSE 13.8 mph - N/A   Clear
10:53 PM 36.0 °F 26.0 °F 12.0 °F 37% 30.13 in 10.0 mi South 17.3 mph 23.0 mph N/A   Clear
11:53 PM 35.1 °F 24.8 °F 12.0 °F 39% 30.12 in 10.0 mi South 17.3 mph 26.5 mph N/A   Clear